BLOCK DM-SL R/B, 28365

Orbit data source: Space-Track

BLOCK DM-SL R/B, 28365 is space debris in HEO originally from a launch on Tue, 29 Jun 2004 UTC launched from the Sea Launch (SEAL). Debris objects in space refer to the collection of defunct objects orbiting the Earth. Examples of debris include non-operational satellites, rocket bodies, and fragments generated from explosions, collisions, or faulty payload assembly.

Loading next visibility...
Identifier
28365, 2004-024B
Orbit
HEO
Country
Flag of UnknownUnknown / SEAL
Related business
Manufacturer
RKKE
Mission
Spacecraft
Bus & Motor
BLOK DM2, 11D58M
Mass
~3,210 kg wet, 3,210 kg dry
Launch date (UTC)
2004-06-29 (21 years ago)
Launch vehicle
Unknown
Launch site
Sea Launch (SEAL)
Object type
Payload
Rocket body
Debris
Shape & HBR
Cyl, 3.1 m
Radar Cross Section
23.684 m², Large (>1 m²)

Expand to show TLE details & history
Last TLE update: 21 hours ago

TLE from 21 hours ago
0 BLOCK DM-SL R/B
1 28365U 04024B   25260.65300727 -.00000059  00000-0  38102-3 0  9991
2 28365   0.1357  24.1520 5978364 357.9300 234.6257  3.73385427289544
Epoch: 2025-09-17T15:40Z
TLE epoch observation values (Epoch: 2025-09-17T15:40:19.828Z)
Latitude
-0.02922°
Longitude
-11.88661°
Altitude
19,762.925 km
Speed
2.79 km/s
True Right ascension
14h 40m 05s
True Declination
0° 01' 45"
Sunlit
Object was in daylight at epoch
Visualization orbit readout
Latitude
Unknown
Longitude
Unknown
Altitude
Unknown
Speed
Unknown
Apparent Right ascension
Unknown
Apparent Declination
Unknown
Sunlit
N/A
Visualization observer readout
Local Sidereal Time
05:36:54
Azimuth
Unknown
Elevation
Unknown
Doppler factor
Unknown
Orbital elements
Apogee altitude
21,672.974 km
Perigee altitude
682.12 km
Semi-major axis
17,555.684 km
Eccentricity
0.59784
Inclination
0.1357°
RAAN
24.152°
Arg. of periapsis
357.93°
True anomaly
197.96969°
Mean anomaly
234.6257°
Eccentric anomaly
214.9857°
Mean motion
0.93307 °/min
Orbital period
385.82 mins
BSTAR
0.00038102
Loading maneuver chart data...
Computing Atmospheric mass density...
Loading historical data...
Loading historical data...
Loading historical data...
Loading historical data...
Loading historical data...
Loading historical data...
Loading historical data...
Other satellites on launch #24 in the year 2004 (2004-06-29 UTC)

Documentation

Showing up to 5 results
|